Weather past 2 weeks in Mamoutzou, Mayotte

Now
77 °F

Mostly cloudy.


Feels Like: 79 °F
Forecast: 73 / 77 °F
Wind: 24 mph from Southwest

Location: Dzaoudzi / Pamanzi Mayotte

Current Time: Aug 3, 2015 at 12:11:56 AM

Latest Report: Aug 2, 2015 at 11:30 PM


Visibility: N/A

Pressure: 30.07 "Hg

Humidity: 74%

Dew point: 68 °F

Location of MamoutzouLocation

Historic Weather in Mamoutzou — Graph

°F

Mamoutzou temperature yesterday

Maximum temperature yesterday: 82 °F (at 9:00 AM)
Minimum temperature yesterday: 77 °F (at 7:00 PM)
Average temperature yesterday: 79 °F

Past Weeks' High & Low Weather Summary

 TemperatureHumidityPressure
High84 °F (Jul 20, 11:00 AM)94% (Jul 19, 2:00 AM)32.96 "Hg (Jul 19, 2:00 AM)
Low70 °F (Jul 19, 12:30 AM)55% (Jul 26, 12:30 PM)29.95 "Hg (Jul 31, 3:00 AM)
Average78 °F72%30.03 "Hg
* Reported Jul 18 11:00 PM — Aug 2 11:00 PM, Mamoutzou, Weather by CustomWeather, © 2015

Note: Actual official high and low records may vary slightly from our data, if they occured in-between our weather recording intervals... More about our weather records

Advertising

Mamoutzou weather history for previous 24 hours

 ConditionsComfort  
Time TempWeatherWind HumidityBarometerVisibility
11:00 PM
Sun, Aug 2
77 °FPartly cloudy.23 mph74%30.07 "HgN/A
10:30 PM77 °FMostly cloudy.22 mph74%30.07 "HgN/A
10:00 PM77 °FPartly cloudy.22 mph74%30.07 "HgN/A
9:30 PM77 °FOvercast.22 mph74%30.07 "HgN/A
9:00 PM77 °FPartly cloudy.21 mph74%30.07 "HgN/A
8:30 PM77 °FPassing clouds.23 mph74%30.07 "HgN/A
8:00 PM77 °FMostly cloudy.20 mph74%30.07 "HgN/A
7:30 PM77 °FPassing clouds.20 mph74%30.04 "HgN/A
7:00 PM77 °FPartly cloudy.21 mph74%30.04 "HgN/A
6:30 PM79 °FPartly cloudy.22 mph70%30.04 "HgN/A
6:00 PM79 °FPartly cloudy.23 mph70%30.04 "HgN/A
5:30 PM79 °FBroken clouds.20 mph70%30.01 "HgN/A
5:00 PM79 °FBroken clouds.20 mph70%30.01 "HgN/A
4:30 PM79 °FPartly sunny.21 mph70%30.01 "HgN/A
4:00 PM81 °FPartly sunny.22 mph66%30.01 "HgN/A
3:30 PM81 °FPartly sunny.23 mph66%30.01 "HgN/A
3:00 PM82 °FPartly sunny.21 mph62%30.01 "HgN/A
2:30 PM82 °FPartly sunny.22 mph62%30.01 "HgN/A
2:00 PM82 °FBroken clouds.22 mph62%30.01 "HgN/A
1:30 PM81 °FBroken clouds.23 mph66%30.04 "HgN/A
1:00 PM81 °FBroken clouds.23 mph66%30.04 "HgN/A
12:30 PM81 °FBroken clouds.24 mph66%30.04 "HgN/A
12:00 PM82 °FBroken clouds.23 mph62%30.04 "HgN/A
11:30 AM82 °FPartly sunny.22 mph66%30.07 "HgN/A
11:00 AM82 °FPartly sunny.22 mph66%30.07 "HgN/A
10:30 AM82 °FBroken clouds.22 mph66%30.07 "HgN/A
10:04 AM81 °FBroken clouds.23 mph66%30.07 "HgN/A
9:30 AM81 °FBroken clouds.22 mph70%30.07 "HgN/A
9:00 AM82 °FPartly sunny.23 mph66%30.07 "HgN/A
8:30 AM81 °FScattered clouds.25 mph70%30.07 "HgN/A
8:00 AM81 °FBroken clouds.24 mph70%30.07 "HgN/A
7:30 AM79 °FBroken clouds.22 mph74%30.07 "HgN/A
7:00 AM79 °FBroken clouds.23 mph74%30.04 "HgN/A
6:30 AM79 °FBroken clouds.20 mph74%30.04 "HgN/A
6:00 AM79 °FPartly cloudy.21 mph74%30.04 "HgN/A
5:30 AM79 °FPassing clouds.22 mph74%30.01 "HgN/A
5:06 AM79 °FPassing clouds.22 mph74%30.01 "HgN/A
4:30 AM79 °FPassing clouds.22 mph74%30.01 "HgN/A
4:00 AM79 °FPassing clouds.22 mph74%30.01 "HgN/A
3:30 AM79 °FMostly cloudy.17 mph74%30.01 "HgN/A
3:00 AM79 °FMostly cloudy.18 mph74%30.01 "HgN/A
2:30 AM79 °FWarm.16 mph74%30.01 "HgN/A
2:00 AM79 °FWarm.15 mph70%30.01 "HgN/A
1:00 AM79 °FWarm.14 mph70%30.04 "HgN/A
12:30 AM79 °FWarm.14 mph65%30.04 "HgN/A
12:00 AM79 °FWarm.14 mph65%30.04 "HgN/A
Weather by CustomWeather, © 2015

See weather overviewHow to use our weather pages